Simultaneous Nadir Overpasses (SNOs) Predictions

Prediction of SNOs between AQUA and METOP-B Satellite Orbit:

Table of predicted SNOs for the next 14.0 days since TLE Epoch: 4/23/2022
Index Date (AQUA) Time (AQUA) Lat,Lon (AQUA) SZA (AQUA ) Date (METOP-B) Time (METOP-B) Lat,Lon (METOP-B) SZA (METOP-B ) Distance(km) Time Diff (sec)
1 04/25/2022 08:26:21 73.86, 47.96 60.61 04/25/2022 08:25:18 73.88, 47.98 60.63 1.46 63
2 04/25/2022 09:15:48 -73.94,-144.57 119.32 04/25/2022 09:15:58 -73.95,-144.51 119.32 2.00 10
3 04/25/2022 10:05:22 74.30, 22.24 61.05 04/25/2022 10:06:31 74.30, 23.69 61.00 43.59 69
4 04/28/2022 04:00:17 73.89, 114.44 59.73 04/28/2022 03:59:39 73.91, 114.47 59.76 2.48 38
5 04/28/2022 04:49:44 -73.96, -78.08 120.21 04/28/2022 04:50:20 -73.93, -78.14 120.24 3.28 36
6 04/30/2022 22:44:39 -73.58, 14.00 121.46 04/30/2022 22:43:29 -73.49, 12.56 121.50 46.56 70
7 04/30/2022 23:34:13 73.95,-179.17 58.92 04/30/2022 23:34:00 73.93,-179.06 58.91 3.89 13
8 05/01/2022 00:23:39 -73.96, -11.56 121.08 05/01/2022 00:24:41 -73.96, -11.66 121.08 3.00 62
9 05/03/2022 18:18:38 -73.88, 79.88 121.98 05/03/2022 18:17:42 -73.86, 79.84 122.00 3.08 56
10 05/03/2022 19:08:06 73.95,-112.62 58.08 05/03/2022 19:08:20 73.95,-112.60 58.08 0.98 14
11 05/03/2022 19:57:43 -74.52, 53.67 121.32 05/03/2022 19:58:50 -74.52, 56.17 121.39 74.40 67
12 05/06/2022 13:52:32 -73.91, 146.35 122.76 05/06/2022 13:52:02 -73.92, 146.41 122.74 1.98 30
13 05/06/2022 14:42:00 73.98, -46.16 57.31 05/06/2022 14:42:41 73.96, -46.16 57.29 1.98 41



Historial Predications of SNOs between AQUA and METOP-B
